Weather History for Warroad, MN

Change the Weather History Date:

Thursday, February 14, 2013

  Actual Average Record
Temperature  
Mean Temperature 10 °F -  
Max Temperature 19 °F 20 °F 43 °F (1983)
Min Temperature 1 °F -4 °F -29 °F (1974)
Degree Days  
Heating Degree Days 55    
Moisture  
Dew Point 3 °F    
Average Humidity 73    
Maximum Humidity 92    
Minimum Humidity 49    
Precipitation  
Precipitation 0.00 in - - ()
Sea Level Pressure  
Sea Level Pressure 30.02 in    
Wind  
Wind Speed 6 mph (NW)    
Max Wind Speed 14 mph    
Max Gust Speed 21 mph    
Visibility 10 miles    
Events Snow    
Averages and records for this station are not official NWS values.
T = Trace of Precipitation, MM = Missing Value Source: NWS Daily Summary

Daily Weather History Graph

Daily Weather History Graph

Search for Another Location

Airport:

Trip Planner

Search our weather history database for the weather conditions in past years. The results will help you decide how hot, cold, wet, or windy it might be!

Date:

Astronomy

Feb. 14, 2013 Rise Set
Actual Time 7:30 AM CST 5:40 PM CST
Civil Twilight 6:58 AM CST 6:13 PM CST
Nautical Twilight 6:21 AM CST 6:50 PM CST
Astronomical Twilight 5:44 AM CST 7:27 PM CST
Moon 9:04 AM CST (2/14) 11:16 PM CST (2/14)
Length of Visible Light 11h 15m
Length of Day
10h 10m
Waxing Crescent, 22% of the Moon is Illuminated
Feb 14
Waxing Crescent
Feb 17
First Quarter
Feb 25
Full
Mar 4
Last Quarter
Mar 11
New

Hourly Weather History & Observations

Time (CST) Temp. Windchill Dew Point Humidity Pressure Visibility Wind Dir Wind Speed Gust Speed Precip Events Conditions
12:14 AM 15.8 °F 5.1 °F 10.4 °F 79% 29.76 in 10.0 mi NNW 8.1 mph - N/A   Clear
12:34 AM 15.8 °F 6.1 °F 10.4 °F 79% 29.77 in 10.0 mi NNW 6.9 mph - N/A   Clear
12:54 AM 14.0 °F 3.9 °F 8.6 °F 79% 29.78 in 10.0 mi NNW 6.9 mph - N/A   Clear
1:14 AM 12.2 °F 2.9 °F 8.6 °F 85% 29.79 in 10.0 mi NNW 5.8 mph - N/A   Clear
1:33 AM 12.2 °F 1.7 °F 8.6 °F 85% 29.79 in 10.0 mi North 6.9 mph - N/A   Clear
1:54 AM 12.2 °F 0.7 °F 6.8 °F 79% 29.80 in 10.0 mi North 8.1 mph - N/A   Clear
2:14 AM 10.4 °F 2.2 °F 6.8 °F 85% 29.81 in 10.0 mi NNW 4.6 mph - N/A   Clear
2:33 AM 10.4 °F 2.2 °F 6.8 °F 85% 29.82 in 10.0 mi NNW 4.6 mph - N/A   Clear
2:54 AM 10.4 °F 2.2 °F 6.8 °F 85% 29.83 in 10.0 mi NNW 4.6 mph - N/A   Clear
3:14 AM 8.6 °F -3.7 °F 5.0 °F 85% 29.83 in 10.0 mi NNW 8.1 mph - N/A   Clear
3:33 AM 8.6 °F -2.6 °F 5.0 °F 85% 29.83 in 10.0 mi NNW 6.9 mph - N/A   Clear
3:54 AM 8.6 °F 2.0 °F 3.2 °F 79% 29.85 in 10.0 mi NNW 3.5 mph - N/A   Clear
4:14 AM 8.6 °F -2.6 °F 3.2 °F 79% 29.85 in 10.0 mi NNW 6.9 mph - N/A   Scattered Clouds
4:33 AM 6.8 °F -3.5 °F 3.2 °F 85% 29.87 in 10.0 mi NNW 5.8 mph - N/A   Scattered Clouds
4:54 AM 8.6 °F 0.1 °F 3.2 °F 79% 29.88 in 10.0 mi NNW 4.6 mph - N/A   Clear
5:14 AM 6.8 °F -2.0 °F 1.4 °F 79% 29.89 in 10.0 mi NNW 4.6 mph - N/A   Clear
5:34 AM 5.0 °F -4.1 °F 1.4 °F 85% 29.90 in 10.0 mi NW 4.6 mph - N/A   Mostly Cloudy
5:54 AM 5.0 °F -2.1 °F 1.4 °F 85% 29.91 in 10.0 mi NNW 3.5 mph - N/A   Scattered Clouds
6:14 AM 3.2 °F -6.2 °F 1.4 °F 92% 29.92 in 10.0 mi NNW 4.6 mph - N/A   Clear
6:34 AM 3.2 °F -6.2 °F -0.4 °F 85% 29.93 in 10.0 mi NW 4.6 mph - N/A   Clear
6:54 AM 3.2 °F -6.2 °F -0.4 °F 85% 29.94 in 7.0 mi NW 4.6 mph - N/A   Clear
7:14 AM 3.2 °F -6.2 °F -0.4 °F 85% 29.95 in 10.0 mi NW 4.6 mph - N/A   Clear
7:34 AM 1.4 °F -9.9 °F -2.2 °F 85% 29.97 in 10.0 mi NNW 5.8 mph - N/A   Clear
7:54 AM 1.4 °F -6.2 °F -2.2 °F 85% 29.98 in 10.0 mi NNW 3.5 mph - N/A   Clear
8:14 AM 1.4 °F -8.3 °F -2.2 °F 85% 30.00 in 10.0 mi NNW 4.6 mph - N/A   Clear
8:34 AM 3.2 °F -7.8 °F -0.4 °F 85% 30.01 in 10.0 mi NNW 5.8 mph - N/A   Clear
8:53 AM 6.8 °F -4.8 °F 1.4 °F 79% 30.01 in 10.0 mi NNW 6.9 mph - N/A   Clear
9:14 AM 6.8 °F -2.0 °F 1.4 °F 79% 30.02 in 10.0 mi NNW 4.6 mph - N/A   Clear
9:34 AM 8.6 °F -3.7 °F 1.4 °F 73% 30.03 in 10.0 mi North 8.1 mph - N/A   Clear
9:53 AM 8.6 °F -2.6 °F 1.4 °F 73% 30.03 in 10.0 mi North 6.9 mph - N/A   Clear
10:14 AM 10.4 °F 4.0 °F 3.2 °F 73% 30.04 in 10.0 mi NNW 3.5 mph - N/A   Clear
10:34 AM 10.4 °F 4.0 °F 3.2 °F 73% 30.05 in 10.0 mi NW 3.5 mph - N/A   Clear
10:53 AM 12.2 °F 6.1 °F 3.2 °F 67% 30.05 in 10.0 mi NW 3.5 mph - N/A   Clear
11:14 AM 12.2 °F 1.7 °F 3.2 °F 67% 30.05 in 10.0 mi NW 6.9 mph - N/A   Clear
11:34 AM 14.0 °F 8.2 °F 3.2 °F 62% 30.06 in 10.0 mi NW 3.5 mph - N/A   Clear
11:53 AM 15.8 °F 8.6 °F 3.2 °F 58% 30.06 in 10.0 mi NW 4.6 mph - N/A   Clear
12:14 PM 15.8 °F 7.2 °F 3.2 °F 58% 30.06 in 10.0 mi WNW 5.8 mph - N/A   Clear
12:34 PM 17.6 °F 8.2 °F 3.2 °F 53% 30.06 in 10.0 mi West 6.9 mph - N/A   Clear
12:53 PM 17.6 °F 8.2 °F 3.2 °F 53% 30.06 in 10.0 mi West 6.9 mph - N/A   Clear
1:14 PM 17.6 °F 6.4 °F 3.2 °F 53% 30.06 in 10.0 mi WNW 9.2 mph - N/A   Clear
1:34 PM 19.4 °F 8.6 °F 3.2 °F 49% 30.06 in 10.0 mi West 9.2 mph - N/A   Clear
1:53 PM 19.4 °F 7.9 °F 3.2 °F 49% 30.06 in 10.0 mi West 10.4 mph - N/A   Clear
2:14 PM 19.4 °F 9.5 °F 3.2 °F 49% 30.07 in 10.0 mi WSW 8.1 mph - N/A   Clear
2:34 PM 15.8 °F 4.2 °F 6.8 °F 68% 30.07 in 10.0 mi SW 9.2 mph - N/A   Clear
2:53 PM 17.6 °F 8.2 °F 6.8 °F 63% 30.08 in 10.0 mi SW 6.9 mph - N/A   Clear
3:14 PM 17.6 °F 9.3 °F 6.8 °F 63% 30.08 in 10.0 mi SW 5.8 mph - N/A   Scattered Clouds
3:34 PM 17.6 °F 8.2 °F 6.8 °F 63% 30.09 in 10.0 mi SW 6.9 mph - N/A   Clear
3:54 PM 17.6 °F 10.7 °F 6.8 °F 63% 30.09 in 10.0 mi SW 4.6 mph - N/A   Clear
4:14 PM 17.6 °F 7.3 °F 5.0 °F 58% 30.10 in 10.0 mi NW 8.1 mph - N/A   Clear
4:34 PM 17.6 °F 7.3 °F 5.0 °F 58% 30.10 in 10.0 mi WNW 8.1 mph - N/A   Clear
4:54 PM 17.6 °F 5.7 °F 1.4 °F 49% 30.10 in 10.0 mi West 10.4 mph - N/A   Clear
5:14 PM 15.8 °F 4.2 °F 3.2 °F 58% 30.11 in 10.0 mi West 9.2 mph - N/A   Scattered Clouds
5:34 PM 14.0 °F 2.0 °F 1.4 °F 57% 30.12 in 10.0 mi WNW 9.2 mph - N/A   Scattered Clouds
5:54 PM 12.2 °F 1.7 °F 1.4 °F 62% 30.13 in 10.0 mi West 6.9 mph - N/A   Clear
6:13 PM 12.2 °F 2.9 °F -0.4 °F 57% 30.13 in 10.0 mi West 5.8 mph - N/A   Mostly Cloudy
6:34 PM 12.2 °F 0.7 °F -0.4 °F 57% 30.14 in 10.0 mi West 8.1 mph - N/A   Overcast
6:54 PM 10.4 °F -3.3 °F 1.4 °F 67% 30.15 in 10.0 mi NW 10.4 mph - N/A   Overcast
7:14 PM 10.4 °F -2.4 °F 1.4 °F 67% 30.15 in 10.0 mi WNW 9.2 mph - N/A   Overcast
7:34 PM 10.4 °F -5.4 °F 1.4 °F 67% 30.15 in 10.0 mi NW 13.8 mph - N/A   Overcast
7:54 PM 8.6 °F -7.0 °F 1.4 °F 73% 30.15 in 10.0 mi NW 12.7 mph 20.7 mph N/A   Mostly Cloudy
8:14 PM 8.6 °F -2.6 °F 1.4 °F 73% 30.16 in 10.0 mi WNW 6.9 mph - N/A   Clear
8:34 PM 6.8 °F -4.8 °F 1.4 °F 79% 30.17 in 10.0 mi WNW 6.9 mph - N/A   Clear
8:54 PM 6.8 °F -2.0 °F -0.4 °F 72% 30.17 in 10.0 mi WNW 4.6 mph - N/A   Clear
9:13 PM 5.0 °F -5.6 °F -0.4 °F 78% 30.17 in 10.0 mi WNW 5.8 mph - N/A   Clear
9:34 PM 5.0 °F -4.1 °F -0.4 °F 78% 30.17 in 10.0 mi WNW 4.6 mph - N/A   Clear
9:54 PM 3.2 °F -7.8 °F -0.4 °F 85% 30.18 in 10.0 mi WNW 5.8 mph - N/A   Clear
10:14 PM 3.2 °F -6.2 °F -0.4 °F 85% 30.18 in 10.0 mi West 4.6 mph - N/A   Clear
10:34 PM 3.2 °F -7.8 °F -0.4 °F 85% 30.18 in 10.0 mi West 5.8 mph - N/A   Clear
10:54 PM 3.2 °F -7.8 °F -0.4 °F 85% 30.18 in 10.0 mi West 5.8 mph - N/A   Scattered Clouds
11:14 PM 3.2 °F -6.2 °F -0.4 °F 85% 30.19 in 7.0 mi West 4.6 mph - N/A   Mostly Cloudy
11:34 PM 1.4 °F -8.3 °F -2.2 °F 85% 30.19 in 5.0 mi West 4.6 mph - N/A Snow Light Snow
11:54 PM 1.4 °F -9.9 °F -2.2 °F 85% 30.20 in 7.0 mi WNW 5.8 mph - N/A   Overcast